283  
ASUS46 KOTX 040525  
RWROTX  
 
EASTERN WASHINGTON/NORTHERN IDAHO ROUNDUP  
NATIONAL WEATHER SERVICE, SPOKANE WA  
1000 PM PDT WED JUN 03 2020  
 
NOTE: "FAIR" INDICATED FEW OR NO CLOUDS BELOW 12,000 FEET WITH NO  
SIGNIFICANT WEATHER AND/OR S TO VISIBILITY
.  
   
..NORTHEAST WASHINGTON AND NORTHERN IDAHO PANHANDLE
 
 
 
CITY SKY/WX TMP DP RH WIND PRES REMARKS
 
SPOKANE INTL CLOUDY 63 38 39 SW5 29.94S  
SPOKANE DOWNTO MOCLDY 59 42 53 CALM 29.93F  
COEUR D ALENE MOCLDY 62 40 44 SE6 29.94F  
DEER PARK MOCLDY 54 42 64 NW6 29.93F  
SANDPOINT PTCLDY 54 43 66 CALM 29.93F  
BONNERS FERRY FAIR 55 41 58 CALM 29.93F  
   
..SOUTHEAST WASHINGTON AND SOUTHERN IDAHO PANHANDLE
 
 
 
CITY SKY/WX TMP DP RH WIND PRES REMARKS
 
WALLA WALLA PTCLDY 61 43 51 E7 29.91F  
PULLMAN/MOSCOW MOCLDY 57 46 66 CALM 29.98S  
LEWISTON PTCLDY 64 46 52 S5 29.93S  
LOWELL N/A 58 52 80 CALM 29.95R  
GRANGEVILLE FAIR 54 52 94 CALM 29.99F  
   
..COLUMBIA BASIN
 
 
 
CITY SKY/WX TMP DP RH WIND PRES REMARKS
 
EPHRATA MOCLDY 68 28 22 NW16 29.90S  
MOSES LAKE MOCLDY 71 33 24 N13 29.90R  
PASCO MOCLDY 73 44 35 SE7 29.88S  
RICHLAND MOCLDY 71 42 34 NW12 29.88R  
HERMISTON PTCLDY 67 30 25 S13 29.89R  
PENDLETON PTCLDY 65 39 38 S8 29.94R  
   
..EAST SLOPES CASCADES
 
 
 
CITY SKY/WX TMP DP RH WIND PRES REMARKS
 
THE DALLES PTCLDY 68 42 38 W8 29.98R  
YAKIMA MOCLDY 66 39 37 NW13G24 29.96R  
ELLENSBURG PTCLDY 59 39 47 NW16G26 30.00R  
STAMPEDE PASS MOCLDY 45 38 76 W8 30.10R  
WENATCHEE PTCLDY 66 28 24 W15 29.93R  
OMAK PTCLDY 64 40 41 NW7 29.89S  
SUNNYSIDE N/A 69 37 31 N9 29.90R  
   
..SOUTHERN BRITISH COLUMBIA
 
 
 
CITY SKY/WX TMP DP RH WIND PRES REMARKS
 
PENTICTON CLOUDY 63 43 48 NW6 29.94R  
OSOYOOS N/A 68 37 32 N8 N/A  
CRESTON N/A 57 41 54 NW5 N/A  
   
..WESTERN MONTANA
 
 
 
CITY SKY/WX TMP DP RH WIND PRES REMARKS
 
KALISPELL MOCLDY 57 38 48 CALM 29.92S  
MISSOULA MOCLDY 62 35 36 CALM 29.94S  
   
..NEIGHBORING CITIES
 
 
 
CITY SKY/WX TMP DP RH WIND PRES REMARKS
 
SEATTLE CLOUDY 59 43 55 N14 30.12R  
PORTLAND PTCLDY 61 47 59 NW8G16 30.09R  
BOISE PTCLDY 74 41 30 CALM 29.88S  
GREAT FALLS MOCLDY 58 27 30 SE5 29.92S  
CALGARY MOCLDY 50 28 43 N8 29.94S  
 
CLICK HERE TO GO TO PREVIOUS BULLETINS.

The Nexlab WA Page
The Nexlab ID Page Main Text Page